Weather in Pechenga

Russia / Murmansk Oblast     69°33′15″N   31°13′07″E
temp.,
°C
wind,
m/s
gust,
m/s
humid.,
%
clouds,
%
prec.,
mm/h
press.,
hPa
HPBL,
m
18 january, mon
mon1800:00−2w71195100 0.8 1003237
03:00−1w81297100 2.2 1002358
06:00−2w71097100 0.8 1001314
09:00−2w6994100 1.6 1001206
12:00−3w5997100 1.5 1001283
15:00−3w4795100 2.6 1001150
18:00−4w61092100 0.1 1001167
21:00−6w5894100 0.2 1001131
19 january, tue
tue1900:00−7w448992 0.2 100139
03:00−8w698956 0.2 1002131
06:00−3n7129180 0.3 1002349
09:00−5nne8139285 1.1 1005418
12:00−7ne7128749 0.1 1008213
15:00−9ne579032 0.2 101082
18:00−10ne458921 0.1 101247
21:00−10ene459116 0.1 101355
20 january, wed
wed2000:00−11ene238072 0.0 101425
03:00−12ne237751 0.0 101521
06:00−12nne23890 0.0 101521
09:00−11ne119143 0.1 101621
12:00−12nne228233 0.0 101621
15:00−13nne119233 0.1 101721
18:00−15se119939 0.0 101621
21:00−16sse119953 0.0 101720
21 january, thu
thu2100:00−16se119038 0.0 101820
03:00−15s119554 0.0 101720
06:00−16ene119415 0.0 101720
09:00−15ne119552 0.1 101720
12:00−16s1210075 0.1 101820
15:00−18ssw0010063 0.3 101820
18:00−17sw119137 0.0 101820
21:00−18ssw228830 0.0 101820
22 january, fri
fri2200:00−17sw119162 0.0 101920
03:00−19ssw229631 0.0 101920
06:00−20ssw12900 0.0 101920
09:00−19ene007715 0.0 101920
12:00−20sse237536 0.0 102121
15:00−19sse237547 0.0 102120
18:00−21se22753 0.0 102220
21:00−22se237421 0.0 102221